This is the latest recevied weather packets stored in our database for station/object EUGENE. If no packets are shown the sender has not sent any weather packets the latest 10 day(s).
| Time | Temp. | Humidity | Pressure | Rain* | Wind** | Luminosity | Snow |
|---|---|---|---|---|---|---|---|
| 1777510622 | 20° C | 40% | 1019.7 hPa | 0 mm | - | - | - |
| 1777509723 | 20° C | 40% | 1019.8 hPa | 0 mm | - | - | - |
| 1777508822 | 20.56° C | 44% | 1019.9 hPa | 0 mm | - | - | - |
| 1777507922 | 20.56° C | 48% | 1019.9 hPa | 0 mm | - | - | - |
| 1777507022 | 20.56° C | 45% | 1020 hPa | 0 mm | - | - | - |
| 1777506122 | 20° C | 42% | 1020.3 hPa | 0 mm | - | - | - |
| 1777505222 | 20° C | 47% | 1020.4 hPa | 0 mm | - | - | - |
| 1777504321 | 20° C | 46% | 1020.7 hPa | 0 mm | - | - | - |
| 1777503422 | 20° C | 54% | 1020.9 hPa | 0 mm | - | - | - |
| 1777502522 | 19.44° C | 50% | 1021.1 hPa | 0 mm | - | - | - |
| 1777501622 | 20° C | 55% | 1021.3 hPa | 0 mm | - | - | - |
| 1777500722 | 19.44° C | 57% | 1021.5 hPa | 0 mm | - | - | - |
| 1777499821 | 18.89° C | 57% | 1021.7 hPa | 0 mm | - | - | - |
| 1777498922 | 18.89° C | 55% | 1021.8 hPa | 0 mm | - | - | - |
| 1777498022 | 18.33° C | 58% | 1021.8 hPa | 0 mm | - | - | - |
| 1777497122 | 18.89° C | 52% | 1021.9 hPa | 0 mm | - | - | - |
| 1777496222 | 18.33° C | 58% | 1021.9 hPa | 0 mm | - | - | - |
| 1777495323 | 17.78° C | 58% | 1022.1 hPa | 0 mm | - | - | - |
| 1777494421 | 17.22° C | 60% | 1022.3 hPa | 0 mm | - | - | - |
| 1777493522 | 17.22° C | 59% | 1022.5 hPa | 0 mm | - | - | - |
| 1777492621 | 17.22° C | 60% | 1022.6 hPa | 0 mm | - | - | - |
| 1777491722 | 17.22° C | 59% | 1022.8 hPa | 0 mm | - | - | - |
| 1777490822 | 16.67° C | 59% | 1022.9 hPa | 0 mm | - | - | - |
| 1777489922 | 16.67° C | 60% | 1023.1 hPa | 0 mm | - | - | - |
| 1777489022 | 16.11° C | 65% | 1023.4 hPa | 0 mm | - | - | - |
* Rain latest hour (hover to see other rain measurements)
** Current wind speed in m/s (hover to see current wind gust speed)